Clinton-Sherman, OK

3:31 PM CDT on April 28, 2017 (GMT -0500)
Clinton-Sherman

Weather History for KCSM - January, 2013

Change the Weather History Date:

Tuesday, January 1, 2013

  Actual Average Record
Temperature  
Mean Temperature 24 °F -  
Max Temperature 28 °F 47 °F 72 °F (2006)
Min Temperature 21 °F 28 °F 10 °F (2001)
Degree Days  
Heating Degree Days 40    
Moisture  
Dew Point 20 °F    
Average Humidity 82    
Maximum Humidity 93    
Minimum Humidity 74    
Precipitation  
Precipitation 0.00 in - - ()
Sea Level Pressure  
Sea Level Pressure 30.26 in    
Wind  
Wind Speed 14 mph (NNW)    
Max Wind Speed 22 mph    
Max Gust Speed 29 mph    
Visibility 8 miles    
Events      
Averages and records for this station are not official NWS values.
T = Trace of Precipitation, MM = Missing Value Source: NWS Daily Summary

Daily Weather History Graph

Daily Weather History Graph

Search for Another Location

Airport or City:

Trip Planner

Search our weather history database for the weather conditions in past years. The results will help you decide how hot, cold, wet, or windy it might be!

Date:

Astronomy

Jan. 01, 2013 Rise Set
Actual Time 7:45 AM CST 5:35 PM CST
Civil Twilight 7:17 AM CST 6:03 PM CST
Nautical Twilight 6:45 AM CST 6:35 PM CST
Astronomical Twilight 6:14 AM CST 7:06 PM CST
Moon 9:57 PM CST (1/1) 10:08 AM CST (1/1)
Length of Visible Light 10h 46m
Length of Day
9h 49m
Waning Gibbous, 83% of the Moon is Illuminated
Jan 1
Waning Gibbous
Jan 4
Last Quarter
Jan 11
New
Jan 18
First Quarter
Jan 26
Full

Hourly Weather History & Observations

Time (CST) Temp. Windchill Dew Point Humidity Pressure Visibility Wind Dir Wind Speed Gust Speed Precip Events Conditions
12:53 AM 27.0 °F 12.8 °F 23.0 °F 85% 30.12 in 10.0 mi North 21.9 mph 28.8 mph N/A   Overcast
1:04 AM 26.6 °F 13.1 °F 23.0 °F 86% 30.07 in 10.0 mi NNW 19.6 mph 25.3 mph N/A   Overcast
1:53 AM 27.0 °F 15.2 °F 23.0 °F 85% 30.14 in 10.0 mi NNW 15.0 mph - N/A   Overcast
2:53 AM 26.1 °F 15.0 °F 21.9 °F 84% 30.16 in 9.0 mi NNW 12.7 mph - N/A   Overcast
3:53 AM 26.1 °F 15.0 °F 21.0 °F 81% 30.19 in 10.0 mi NNW 12.7 mph - N/A   Overcast
4:29 AM 26.6 °F 15.7 °F 21.2 °F 80% 30.16 in 9.0 mi NNW 12.7 mph - N/A   Overcast
4:53 AM 25.0 °F 14.2 °F 19.9 °F 81% 30.21 in 8.0 mi NNW 11.5 mph - N/A   Overcast
5:53 AM 23.0 °F 11.1 °F 19.0 °F 85% 30.23 in 8.0 mi NNW 12.7 mph - N/A   Overcast
6:53 AM 23.0 °F 10.1 °F 19.0 °F 85% 30.25 in 8.0 mi NNW 15.0 mph - N/A   Overcast
7:53 AM 23.0 °F 11.1 °F 19.0 °F 85% 30.27 in 8.0 mi NNW 12.7 mph - N/A   Overcast
8:53 AM 23.0 °F 10.6 °F 19.0 °F 85% 30.29 in 6.0 mi NNW 13.8 mph - N/A   Overcast
9:53 AM 24.1 °F 12.5 °F 19.0 °F 81% 30.31 in 6.0 mi NNW 12.7 mph - N/A   Haze
10:53 AM 25.0 °F 13.1 °F 19.9 °F 81% 30.32 in 6.0 mi NNW 13.8 mph - N/A   Haze
11:53 AM 27.0 °F 14.7 °F 19.9 °F 75% 30.32 in 6.0 mi NNW 16.1 mph - N/A   Haze
12:53 PM 27.0 °F 15.6 °F 21.0 °F 78% 30.30 in 7.0 mi NNW 13.8 mph - N/A   Overcast
1:53 PM 28.0 °F 17.5 °F 21.0 °F 75% 30.28 in 7.0 mi NNW 12.7 mph - N/A   Overcast
2:53 PM 28.0 °F 17.5 °F 21.0 °F 75% 30.28 in 8.0 mi North 12.7 mph - N/A   Overcast
3:12 PM 28.4 °F 18.5 °F 21.2 °F 74% 30.24 in 7.0 mi NNW 11.5 mph - N/A   Overcast
3:22 PM 28.4 °F 18.5 °F 21.2 °F 74% 30.25 in 8.0 mi NNW 11.5 mph - N/A   Overcast
3:53 PM 28.0 °F 18.6 °F 21.0 °F 75% 30.30 in 8.0 mi North 10.4 mph - N/A   Overcast
4:53 PM 28.0 °F 18.6 °F 21.0 °F 75% 30.30 in 8.0 mi North 10.4 mph - N/A   Overcast
5:53 PM 27.0 °F 18.0 °F 19.9 °F 75% 30.31 in 9.0 mi North 9.2 mph - N/A   Overcast
6:53 PM 25.0 °F 17.1 °F 19.9 °F 81% 30.32 in 8.0 mi NNW 6.9 mph - N/A   Clear
7:53 PM 21.9 °F 12.5 °F 19.0 °F 89% 30.35 in 8.0 mi NW 8.1 mph - N/A   Clear
8:53 PM 25.0 °F 16.3 °F 21.0 °F 85% 30.34 in 8.0 mi NNW 8.1 mph - N/A   Clear
9:14 PM 24.8 °F 16.1 °F 21.2 °F 86% 30.29 in 8.0 mi North 8.1 mph - N/A   Mostly Cloudy
9:21 PM 24.8 °F 15.3 °F 21.2 °F 86% 30.28 in 8.0 mi North 9.2 mph - N/A   Scattered Clouds
9:53 PM 23.0 °F 15.8 °F 19.9 °F 88% 30.34 in 7.0 mi NNW 5.8 mph - N/A   Clear
10:31 PM 23.0 °F 17.0 °F 19.4 °F 86% 30.28 in 8.0 mi North 4.6 mph - N/A   Mostly Cloudy
10:53 PM 21.9 °F 14.5 °F 19.0 °F 89% 30.34 in 8.0 mi North 5.8 mph - N/A   Mostly Cloudy
11:17 PM 21.2 °F 12.6 °F 19.4 °F 93% 30.28 in 8.0 mi NNW 6.9 mph - N/A   Scattered Clouds
11:53 PM 21.9 °F 17.2 °F 19.0 °F 89% 30.34 in 8.0 mi NW 3.5 mph - N/A   Clear